Home   Weather   Stavern   Past weeks

Flag for Norway Past Weather in Stavern, Norway — Yesterday and Last 2 Weeks

37 °F

Passing clouds.

Feels Like: 28 °F
Forecast: 40 / 44 °F
Wind: 15 mph from Northeast

Location: Torp

Current Time: Oct 22, 2016 at 9:49:49 PM

Latest Report: Oct 22, 2016 at 8:50 PM

Visibility: N/A

Pressure: 30.30 "Hg

Humidity: 100%

Dew Point: 37 °F

Location of StavernLocation

Past Weather in Stavern — Graph


Stavern Temperature Yesterday

Maximum temperature yesterday: 43 °F (at 12:20 AM)
Minimum temperature yesterday: 39 °F (at 11:20 AM)
Average temperature yesterday: 40 °F

High & Low Weather Summary for the Past Weeks

High52 °F (Oct 7, 8:20 PM)100% (Oct 10, 12:20 AM)30.57 "Hg (Oct 10, 12:20 AM)
Low32 °F (Oct 14, 11:50 AM)62% (Oct 7, 8:20 PM)30.09 "Hg (Oct 18, 2:20 PM)
Average42 °F90%30.39 "Hg
* Reported Oct 7 8:20 PM — Oct 22 8:20 PM, Stavern, Weather by CustomWeather, © 2016

Note: Actual official high and low records may vary slightly from our data, if they occured in-between our weather recording intervals... More about our weather records


Stavern Weather History for the Previous 24 Hours

Scroll right to see more
Time TempWeatherWind HumidityBarometerVisibility
8:20 PM
Sat, Oct 22
37 °FPassing clouds.14 mph100%30.30 "HgN/A
7:50 PM37 °FPassing clouds.16 mph100%30.30 "HgN/A
7:20 PM37 °FPassing clouds.14 mph100%30.30 "HgN/A
6:50 PM37 °FPassing clouds.16 mph100%30.30 "HgN/A
6:20 PM36 °FPassing clouds.15 mph100%30.30 "HgN/A
5:50 PM36 °FPassing clouds.15 mph100%30.30 "HgN/A
5:20 PM37 °FDrizzle. Partly sunny.14 mph100%30.30 "HgN/A
4:50 PM36 °FLight rain. Partly sunny.14 mph100%30.30 "HgN/A
4:20 PM36 °FLight rain. Partly sunny.16 mph100%30.30 "Hg6 mi
3:50 PM37 °FLight rain. Partly sunny.14 mph100%30.30 "HgN/A
3:20 PM37 °FLight rain. Partly sunny.15 mph100%30.30 "Hg6 mi
2:50 PM37 °FRain showers. Broken clouds.15 mph100%30.30 "HgN/A
2:20 PM37 °FLight rain. Partly sunny.16 mph93%30.30 "Hg4 mi
1:50 PM39 °FOvercast.13 mph81%30.30 "HgN/A
1:20 PM39 °FPartly sunny.15 mph81%30.30 "HgN/A
12:50 PM39 °FPartly sunny.15 mph75%30.30 "HgN/A
12:20 PM39 °FOvercast.14 mph75%30.30 "HgN/A
11:50 AM39 °FOvercast.14 mph75%30.30 "HgN/A
11:20 AM39 °FOvercast.15 mph75%30.30 "HgN/A
10:50 AM39 °FPartly sunny.14 mph81%30.30 "HgN/A
10:20 AM39 °FOvercast.14 mph81%30.30 "HgN/A
9:50 AM39 °FOvercast.14 mph81%30.30 "HgN/A
9:20 AM39 °FPartly sunny.14 mph81%30.30 "HgN/A
8:50 AM39 °FOvercast.13 mph81%30.30 "HgN/A
8:20 AM39 °FOvercast.15 mph87%30.30 "HgN/A
7:50 AM41 °FOvercast.15 mph81%30.30 "HgN/A
7:20 AM41 °FOvercast.13 mph87%30.30 "HgN/A
6:50 AM39 °FOvercast.14 mph93%30.30 "HgN/A
6:20 AM41 °FOvercast.12 mph81%30.30 "HgN/A
5:50 AM41 °FPassing clouds.12 mph81%30.30 "HgN/A
5:20 AM41 °FOvercast.14 mph87%30.30 "HgN/A
4:50 AM39 °FOvercast.12 mph93%30.30 "HgN/A
4:20 AM41 °FMostly cloudy.12 mph87%30.30 "HgN/A
3:50 AM41 °FMostly cloudy.12 mph93%30.30 "HgN/A
3:20 AM41 °FLight rain. Overcast.12 mph93%30.30 "HgN/A
2:50 AM41 °FDrizzle. Overcast.10 mph93%30.30 "HgN/A
1:50 AM41 °FOvercast.9 mph93%30.33 "HgN/A
1:20 AM41 °FOvercast.10 mph100%30.33 "HgN/A
12:50 AM41 °FOvercast.9 mph100%30.33 "HgN/A
12:20 AM41 °FDrizzle. Mostly cloudy.10 mph100%30.33 "HgN/A
11:50 PM
Fri, Oct 21
41 °FLight rain. Mostly cloudy.10 mph100%30.33 "HgN/A
11:20 PM41 °FPassing clouds.10 mph100%30.33 "HgN/A
10:50 PM41 °FDrizzle. Overcast.9 mph100%30.33 "HgN/A
10:20 PM41 °FOvercast.9 mph100%30.33 "HgN/A
9:50 PM41 °FOvercast.10 mph100%30.33 "HgN/A
9:20 PM39 °FOvercast.10 mph100%30.33 "HgN/A
Weather by CustomWeather, © 2016

See weather overviewHow to use our weather pages